• în Republica Moldova
  • Lista ţărilor
  • Pe 7 zile
  • Temperatura apei
  • Hartă satelitară
  • Meteo pe hartă
  • Widget-uri
  • user-avatar
    Intrare

    Meteo pe oră la Kalgoorlie

    Astăzi, 20 Ianuarie, Duminică

    Timp Temperatura Precipitaţii Vânt Presiune Umiditate
    00:00 +32°C° 0 mm 6 m/s 731 mmHg 28%
    01:00 +30°C° 0 mm 6 m/s 731 mmHg 30%
    02:00 +29°C° 0 mm 6 m/s 731 mmHg 30%
    03:00 +29°C° 0 mm 5 m/s 731 mmHg 33%
    04:00 +28°C° 0 mm 5 m/s 731 mmHg 36%
    05:00 +27°C° 0 mm 5 m/s 731 mmHg 38%
    06:00 +29°C° 0 mm 5 m/s 731 mmHg 37%
    07:00 +30°C° 0 mm 5 m/s 731 mmHg 36%
    08:00 +33°C° 0 mm 5 m/s 732 mmHg 35%
    09:00 +34°C° 0 mm 5 m/s 732 mmHg 30%
    10:00 +35°C° 0 mm 4 m/s 731 mmHg 24%
    11:00 +37°C° 0 mm 4 m/s 731 mmHg 19%
    12:00 +37°C° 0 mm 4 m/s 730 mmHg 17%
    13:00 +38°C° 0 mm 4 m/s 730 mmHg 16%
    14:00 +40°C° 0 mm 4 m/s 729 mmHg 14%
    15:00 +41°C° 0 mm 4 m/s 729 mmHg 14%
    16:00 +41°C° 0 mm 4 m/s 729 mmHg 13%
    17:00 +41°C° 0 mm 4 m/s 729 mmHg 13%
    18:00 +40°C° 0 mm 4 m/s 729 mmHg 15%
    19:00 +38°C° 0 mm 4 m/s 729 mmHg 16%
    20:00 +37°C° 0 mm 4 m/s 729 mmHg 18%
    21:00 +37°C° 0 mm 4 m/s 729 mmHg 20%
    22:00 +36°C° 0 mm 5 m/s 729 mmHg 23%
    23:00 +35°C° 0 mm 5 m/s 729 mmHg 26%

    Mâine, 21 Ianuarie, Luni

    Timp Temperatura Precipitaţii Vânt Presiune Umiditate
    00:00 +35°C° 0 mm 5 m/s 729 mmHg 27%
    01:00 +34°C° 0 mm 6 m/s 729 mmHg 29%
    02:00 +33°C° 0 mm 6 m/s 728 mmHg 31%
    03:00 +33°C° 0 mm 5 m/s 728 mmHg 33%
    04:00 +32°C° 0 mm 5 m/s 728 mmHg 35%
    05:00 +30°C° 0 mm 5 m/s 728 mmHg 37%
    06:00 +33°C° 0 mm 5 m/s 728 mmHg 34%
    07:00 +35°C° 0 mm 6 m/s 728 mmHg 31%
    08:00 +36°C° 0 mm 6 m/s 728 mmHg 29%
    09:00 +39°C° 0 mm 6 m/s 728 mmHg 25%
    10:00 +40°C° 0 mm 5 m/s 728 mmHg 20%
    11:00 +42°C° 0 mm 4 m/s 727 mmHg 16%
    12:00 +42°C° 0 mm 4 m/s 727 mmHg 15%
    13:00 +43°C° 0 mm 3 m/s 726 mmHg 13%
    14:00 +44°C° 0 mm 3 m/s 726 mmHg 11%
    15:00 +43°C° 0 mm 2 m/s 725 mmHg 11%
    16:00 +43°C° 0 mm 2 m/s 725 mmHg 11%
    17:00 +43°C° 0 mm 2 m/s 724 mmHg 11%
    18:00 +42°C° 0 mm 2 m/s 724 mmHg 11%
    19:00 +42°C° 0 mm 2 m/s 724 mmHg 12%
    20:00 +42°C° 0 mm 3 m/s 724 mmHg 13%
    21:00 +40°C° 0 mm 3 m/s 724 mmHg 15%
    22:00 +40°C° 0 mm 4 m/s 724 mmHg 16%
    23:00 +40°C° 0 mm 4 m/s 724 mmHg 17%

    Poimâine, 22 Ianuarie, Marţi

    Timp Temperatura Precipitaţii Vânt Presiune Umiditate
    00:00 +39°C° 0 mm 5 m/s 723 mmHg 18%
    01:00 +38°C° 0 mm 6 m/s 723 mmHg 19%
    02:00 +38°C° 0 mm 6 m/s 722 mmHg 21%
    03:00 +36°C° 0 mm 6 m/s 722 mmHg 22%
    04:00 +35°C° 0 mm 5 m/s 722 mmHg 23%
    05:00 +35°C° 0 mm 4 m/s 722 mmHg 25%
    06:00 +36°C° 0 mm 6 m/s 722 mmHg 24%
    07:00 +39°C° 0 mm 7 m/s 722 mmHg 22%
    08:00 +42°C° 0 mm 9 m/s 722 mmHg 21%
    09:00 +44°C° 0 mm 9 m/s 722 mmHg 18%
    10:00 +45°C° 0 mm 8 m/s 722 mmHg 15%
    11:00 +48°C° 0 mm 8 m/s 721 mmHg 12%
    12:00 +49°C° 0 mm 8 m/s 721 mmHg 11%
    13:00 +49°C° 0 mm 7 m/s 720 mmHg 11%
    14:00 +50°C° 0 mm 7 m/s 719 mmHg 10%
    15:00 +47°C° 0 mm 10 m/s 719 mmHg 14%
    16:00 +44°C° 0 mm 12 m/s 718 mmHg 18%
    17:00 +41°C° 0 mm 15 m/s 718 mmHg 22%
    18:00 +39°C° 0 mm 12 m/s 719 mmHg 27%
    19:00 +38°C° 0 mm 9 m/s 719 mmHg 32%
    20:00 +36°C° 0 mm 6 m/s 720 mmHg 37%
    21:00 +35°C° 0 mm 5 m/s 720 mmHg 38%
    22:00 +35°C° 0 mm 4 m/s 720 mmHg 39%
    23:00 +34°C° 0 mm 3 m/s 720 mmHg 40%

    23 Ianuarie, Miercuri

    Timp Temperatura Precipitaţii Vânt Presiune Umiditate
    00:00 +34°C° 0 mm 3 m/s 720 mmHg 41%
    01:00 +32°C° 0 mm 2 m/s 719 mmHg 42%
    02:00 +32°C° 0 mm 2 m/s 719 mmHg 43%
    03:00 +32°C° 0 mm 2 m/s 719 mmHg 42%
    04:00 +33°C° 0 mm 3 m/s 720 mmHg 41%
    05:00 +33°C° 0 mm 4 m/s 720 mmHg 41%
    06:00 +32°C° 0 mm 5 m/s 720 mmHg 45%
    07:00 +30°C° 0 mm 6 m/s 720 mmHg 49%
    08:00 +28°C° 0 mm 7 m/s 720 mmHg 54%
    09:00 +30°C° 0 mm 7 m/s 720 mmHg 44%
    10:00 +32°C° 0 mm 8 m/s 720 mmHg 35%
    11:00 +33°C° 0 mm 8 m/s 721 mmHg 26%
    12:00 +34°C° 0 mm 9 m/s 720 mmHg 23%
    13:00 +34°C° 0 mm 10 m/s 720 mmHg 19%
    14:00 +36°C° 0 mm 10 m/s 720 mmHg 16%
    15:00 +34°C° 0 mm 11 m/s 720 mmHg 15%
    16:00 +34°C° 0 mm 11 m/s 720 mmHg 14%
    17:00 +33°C° 0 mm 12 m/s 720 mmHg 14%
    18:00 +31°C° 0 mm 12 m/s 721 mmHg 18%
    19:00 +28°C° 0 mm 12 m/s 721 mmHg 23%
    20:00 +26°C° 0 mm 12 m/s 721 mmHg 28%
    21:00 +24°C° 0 mm 12 m/s 722 mmHg 35%
    22:00 +22°C° 0 mm 12 m/s 722 mmHg 43%
    23:00 +21°C° 0 mm 11 m/s 722 mmHg 50%

    24 Ianuarie, Joi

    Timp Temperatura Precipitaţii Vânt Presiune Umiditate
    00:00 +19°C° 0 mm 11 m/s 722 mmHg 52%
    01:00 +19°C° 0 mm 11 m/s 722 mmHg 55%
    02:00 +18°C° 0 mm 11 m/s 722 mmHg 57%
    03:00 +18°C° 0 mm 10 m/s 722 mmHg 59%
    04:00 +18°C° 0 mm 10 m/s 722 mmHg 60%
    05:00 +17°C° 0 mm 10 m/s 722 mmHg 62%
    06:00 +18°C° 0 mm 9 m/s 723 mmHg 59%
    07:00 +19°C° 0 mm 9 m/s 724 mmHg 56%
    08:00 +21°C° 0 mm 9 m/s 724 mmHg 53%
    09:00 +23°C° 0 mm 9 m/s 725 mmHg 48%
    10:00 +24°C° 0 mm 9 m/s 725 mmHg 43%
    11:00 +27°C° 0 mm 9 m/s 725 mmHg 38%
    12:00 +28°C° 0 mm 9 m/s 725 mmHg 36%
    13:00 +29°C° 0 mm 9 m/s 725 mmHg 34%
    14:00 +31°C° 0 mm 9 m/s 725 mmHg 32%
    15:00 +29°C° 0 mm 9 m/s 725 mmHg 35%
    16:00 +28°C° 0 mm 9 m/s 726 mmHg 38%
    17:00 +27°C° 0 mm 9 m/s 726 mmHg 42%
    18:00 +26°C° 0 mm 9 m/s 726 mmHg 45%
    19:00 +24°C° 0 mm 8 m/s 727 mmHg 48%
    20:00 +22°C° 0 mm 8 m/s 728 mmHg 51%
    21:00 +21°C° 0 mm 8 m/s 728 mmHg 55%
    22:00 +20°C° 0 mm 8 m/s 728 mmHg 58%
    23:00 +18°C° 0 mm 8 m/s 728 mmHg 62%

    25 Ianuarie, Vineri

    Timp Temperatura Precipitaţii Vânt Presiune Umiditate
    00:00 +17°C° 0 mm 7 m/s 728 mmHg 64%
    01:00 +17°C° 0 mm 7 m/s 728 mmHg 67%
    02:00 +16°C° 0 mm 7 m/s 728 mmHg 69%
    03:00 +16°C° 0 mm 6 m/s 728 mmHg 70%
    04:00 +16°C° 0 mm 6 m/s 728 mmHg 71%
    05:00 +16°C° 0 mm 6 m/s 729 mmHg 72%
    06:00 +16°C° 0 mm 6 m/s 729 mmHg 69%
    07:00 +17°C° 0 mm 6 m/s 729 mmHg 65%
    08:00 +19°C° 0 mm 6 m/s 730 mmHg 62%
    09:00 +20°C° 0 mm 5 m/s 729 mmHg 56%
    10:00 +22°C° 0 mm 4 m/s 729 mmHg 50%
    11:00 +25°C° 0 mm 3 m/s 729 mmHg 44%
    12:00 +26°C° 0 mm 3 m/s 728 mmHg 39%
    13:00 +28°C° 0 mm 2 m/s 728 mmHg 35%
    14:00 +30°C° 0 mm 1 m/s 727 mmHg 30%
    15:00 +30°C° 0 mm 2 m/s 727 mmHg 28%
    16:00 +31°C° 0 mm 2 m/s 727 mmHg 26%
    17:00 +32°C° 0 mm 2 m/s 726 mmHg 24%
    18:00 +31°C° 0 mm 3 m/s 727 mmHg 25%
    19:00 +31°C° 0 mm 3 m/s 727 mmHg 26%
    20:00 +30°C° 0 mm 4 m/s 727 mmHg 27%
    21:00 +30°C° 0 mm 4 m/s 727 mmHg 28%
    22:00 +29°C° 0 mm 4 m/s 728 mmHg 29%
    23:00 +28°C° 0 mm 4 m/s 728 mmHg 31%
    Arată mai mult